When you browse on this site, cookies collect data to enhance your experience and personalize the content and advertising you see.
Visit our Privacy Policy to learn more. By continuing to use the site, you agree to this use of cookies and data.
  • In Netherlands
  • List of Countries
  • For 7 days
  • Water Temperature
  • Satellite Maps
  • Weather Map
  • Weather Widgets
  • user-avatar
    Login

    Hourly Weather Drawsko Pomorskie

    Today, 25 April, Thursday

    Time Temperature Precipitation Wind Pressure Humidity
    00:00 +14°C° 0 mm 4 mps 746 mmHg 81%
    01:00 +13°C° 0 mm 4 mps 746 mmHg 85%
    02:00 +13°C° 0 mm 4 mps 746 mmHg 86%
    03:00 +12°C° 0 mm 4 mps 746 mmHg 87%
    04:00 +12°C° 0 mm 4 mps 746 mmHg 88%
    05:00 +13°C° 0 mm 4 mps 746 mmHg 86%
    06:00 +14°C° 0 mm 4 mps 747 mmHg 83%
    07:00 +15°C° 0 mm 4 mps 747 mmHg 81%
    08:00 +17°C° 0 mm 3 mps 747 mmHg 77%
    09:00 +18°C° 0 mm 3 mps 748 mmHg 72%
    10:00 +20°C° 0 mm 3 mps 748 mmHg 68%
    11:00 +21°C° 0 mm 3 mps 748 mmHg 60%
    12:00 +24°C° 0 mm 2 mps 748 mmHg 52%
    13:00 +25°C° 0 mm 2 mps 749 mmHg 44%
    14:00 +25°C° 0 mm 2 mps 749 mmHg 43%
    15:00 +25°C° 0 mm 3 mps 749 mmHg 42%
    16:00 +25°C° 0 mm 3 mps 749 mmHg 41%
    17:00 +22°C° 0 mm 3 mps 749 mmHg 53%
    18:00 +20°C° 0 mm 3 mps 749 mmHg 65%
    19:00 +17°C° 0 mm 3 mps 749 mmHg 78%
    20:00 +16°C° 0 mm 3 mps 749 mmHg 80%
    21:00 +14°C° 0 mm 3 mps 749 mmHg 82%
    22:00 +13°C° 0 mm 3 mps 749 mmHg 84%
    23:00 +13°C° 0.1 mm 3 mps 749 mmHg 85%

    Tomorrow, 26 April, Friday

    Time Temperature Precipitation Wind Pressure Humidity
    00:00 +13°C° 0.1 mm 3 mps 748 mmHg 87%
    01:00 +13°C° 0.1 mm 3 mps 748 mmHg 88%
    02:00 +13°C° 0.1 mm 3 mps 748 mmHg 90%
    03:00 +12°C° 0.1 mm 3 mps 747 mmHg 91%
    04:00 +12°C° 0.1 mm 3 mps 747 mmHg 93%
    05:00 +14°C° 0 mm 3 mps 747 mmHg 89%
    06:00 +16°C° 0 mm 3 mps 746 mmHg 84%
    07:00 +17°C° 0 mm 4 mps 746 mmHg 80%
    08:00 +19°C° 0 mm 4 mps 746 mmHg 71%
    09:00 +21°C° 0 mm 4 mps 745 mmHg 61%
    10:00 +23°C° 0 mm 4 mps 745 mmHg 52%
    11:00 +25°C° 0 mm 4 mps 745 mmHg 48%
    12:00 +26°C° 0 mm 4 mps 744 mmHg 45%
    13:00 +27°C° 0 mm 4 mps 744 mmHg 41%
    14:00 +26°C° 0 mm 4 mps 744 mmHg 43%
    15:00 +26°C° 0 mm 3 mps 743 mmHg 45%
    16:00 +26°C° 0 mm 3 mps 743 mmHg 47%
    17:00 +24°C° 0 mm 2 mps 743 mmHg 52%
    18:00 +23°C° 0 mm 2 mps 743 mmHg 58%
    19:00 +21°C° 0 mm 1 mps 743 mmHg 63%
    20:00 +19°C° 0.4 mm 2 mps 743 mmHg 68%
    21:00 +18°C° 0.4 mm 3 mps 743 mmHg 74%
    22:00 +17°C° 0.4 mm 4 mps 744 mmHg 80%
    23:00 +15°C° 0.4 mm 4 mps 744 mmHg 85%

    Day after tomorrow, 27 April, Saturday

    Time Temperature Precipitation Wind Pressure Humidity
    00:00 +14°C° 0.4 mm 4 mps 744 mmHg 89%
    01:00 +13°C° 0.4 mm 5 mps 744 mmHg 93%
    02:00 +13°C° 0.1 mm 5 mps 744 mmHg 93%
    03:00 +12°C° 0.1 mm 5 mps 745 mmHg 92%
    04:00 +11°C° 0.1 mm 6 mps 745 mmHg 91%
    05:00 +10°C° 0.1 mm 6 mps 745 mmHg 90%
    06:00 +10°C° 0.1 mm 5 mps 745 mmHg 90%
    07:00 +9°C° 0.1 mm 5 mps 746 mmHg 90%
    08:00 +9°C° 0.1 mm 5 mps 746 mmHg 87%
    09:00 +9°C° 0.1 mm 5 mps 746 mmHg 85%
    10:00 +9°C° 0.1 mm 5 mps 747 mmHg 82%
    11:00 +12°C° 0 mm 5 mps 747 mmHg 72%
    12:00 +14°C° 0 mm 5 mps 747 mmHg 62%
    13:00 +16°C° 0 mm 5 mps 747 mmHg 52%
    14:00 +17°C° 0 mm 4 mps 747 mmHg 50%
    15:00 +17°C° 0 mm 4 mps 747 mmHg 48%
    16:00 +18°C° 0 mm 3 mps 747 mmHg 46%
    17:00 +16°C° 0 mm 3 mps 747 mmHg 52%
    18:00 +15°C° 0 mm 2 mps 747 mmHg 59%
    19:00 +13°C° 0 mm 2 mps 747 mmHg 65%
    20:00 +12°C° 0 mm 2 mps 747 mmHg 66%
    21:00 +12°C° 0 mm 2 mps 748 mmHg 67%
    22:00 +11°C° 0 mm 1 mps 748 mmHg 67%
    23:00 +11°C° 0 mm 1 mps 748 mmHg 66%

    28 April, Sunday

    Time Temperature Precipitation Wind Pressure Humidity
    00:00 +11°C° 0 mm 1 mps 748 mmHg 66%
    01:00 +11°C° 0 mm 1 mps 748 mmHg 65%
    02:00 +10°C° 0 mm 1 mps 748 mmHg 66%
    03:00 +10°C° 0 mm 1 mps 748 mmHg 67%
    04:00 +10°C° 0 mm 1 mps 749 mmHg 69%
    05:00 +11°C° 0 mm 1 mps 749 mmHg 70%
    06:00 +10°C° 0 mm 2 mps 749 mmHg 71%
    07:00 +10°C° 0 mm 2 mps 750 mmHg 72%
    08:00 +12°C° 0 mm 3 mps 750 mmHg 68%
    09:00 +13°C° 0 mm 3 mps 750 mmHg 64%
    10:00 +14°C° 0 mm 3 mps 751 mmHg 61%
    11:00 +14°C° 0 mm 3 mps 751 mmHg 61%
    12:00 +15°C° 0 mm 4 mps 751 mmHg 61%
    13:00 +15°C° 0 mm 4 mps 751 mmHg 62%
    14:00 +14°C° 0 mm 4 mps 751 mmHg 63%
    15:00 +14°C° 0 mm 4 mps 751 mmHg 64%
    16:00 +13°C° 0 mm 5 mps 751 mmHg 65%
    17:00 +12°C° 0.1 mm 4 mps 751 mmHg 70%
    18:00 +11°C° 0.1 mm 4 mps 751 mmHg 76%
    19:00 +10°C° 0.1 mm 4 mps 751 mmHg 81%
    20:00 +8°C° 0.4 mm 4 mps 751 mmHg 85%
    21:00 +8°C° 0.4 mm 4 mps 752 mmHg 90%
    22:00 +7°C° 0.4 mm 4 mps 752 mmHg 94%
    23:00 +7°C° 0.5 mm 4 mps 752 mmHg 94%

    29 April, Monday

    Time Temperature Precipitation Wind Pressure Humidity
    00:00 +8°C° 0.5 mm 3 mps 752 mmHg 94%
    01:00 +7°C° 0.5 mm 3 mps 752 mmHg 95%
    02:00 +7°C° 0.3 mm 3 mps 751 mmHg 95%
    03:00 +7°C° 0.3 mm 2 mps 751 mmHg 95%
    04:00 +8°C° 0.3 mm 1 mps 751 mmHg 96%
    05:00 +8°C° 0.4 mm 2 mps 751 mmHg 95%
    06:00 +9°C° 0.4 mm 2 mps 751 mmHg 95%
    07:00 +10°C° 0.4 mm 3 mps 752 mmHg 94%
    08:00 +10°C° 0.5 mm 3 mps 752 mmHg 91%
    09:00 +11°C° 0.5 mm 4 mps 752 mmHg 89%
    10:00 +10°C° 0.5 mm 5 mps 752 mmHg 86%
    11:00 +13°C° 0.2 mm 5 mps 752 mmHg 78%
    12:00 +14°C° 0.2 mm 5 mps 753 mmHg 69%
    13:00 +17°C° 0.2 mm 4 mps 753 mmHg 61%
    14:00 +16°C° 0 mm 5 mps 753 mmHg 57%
    15:00 +16°C° 0 mm 5 mps 753 mmHg 52%
    16:00 +16°C° 0 mm 5 mps 753 mmHg 48%
    17:00 +15°C° 0 mm 5 mps 753 mmHg 52%
    18:00 +13°C° 0 mm 5 mps 753 mmHg 56%
    19:00 +11°C° 0 mm 4 mps 753 mmHg 60%
    20:00 +10°C° 0 mm 4 mps 753 mmHg 61%
    21:00 +8°C° 0 mm 4 mps 754 mmHg 62%
    22:00 +7°C° 0 mm 4 mps 754 mmHg 63%
    23:00 +6°C° 0 mm 4 mps 754 mmHg 66%

    30 April, Tuesday

    Time Temperature Precipitation Wind Pressure Humidity
    00:00 +5°C° 0 mm 4 mps 754 mmHg 68%
    01:00 +5°C° 0 mm 3 mps 754 mmHg 71%
    02:00 +4°C° 0 mm 3 mps 754 mmHg 73%
    03:00 +4°C° 0 mm 3 mps 754 mmHg 76%
    04:00 +4°C° 0 mm 3 mps 754 mmHg 79%
    05:00 +5°C° 0 mm 3 mps 754 mmHg 74%
    06:00 +7°C° 0 mm 3 mps 754 mmHg 70%
    07:00 +8°C° 0 mm 3 mps 754 mmHg 66%
    08:00 +10°C° 0 mm 4 mps 754 mmHg 59%
    09:00 +11°C° 0 mm 4 mps 754 mmHg 52%
    10:00 +13°C° 0 mm 4 mps 755 mmHg 45%
    11:00 +14°C° 0 mm 4 mps 754 mmHg 43%
    12:00 +14°C° 0 mm 4 mps 754 mmHg 42%
    13:00 +15°C° 0 mm 4 mps 754 mmHg 40%
    14:00 +15°C° 0 mm 4 mps 754 mmHg 40%
    15:00 +15°C° 0 mm 4 mps 754 mmHg 40%
    16:00 +15°C° 0 mm 4 mps 754 mmHg 40%
    17:00 +13°C° 0 mm 4 mps 754 mmHg 46%
    18:00 +12°C° 0 mm 4 mps 754 mmHg 51%
    19:00 +10°C° 0 mm 4 mps 754 mmHg 57%
    20:00 +8°C° 0 mm 4 mps 754 mmHg 59%
    21:00 +8°C° 0 mm 3 mps 754 mmHg 60%
    22:00 +7°C° 0 mm 3 mps 754 mmHg 62%
    23:00 +5°C° 0 mm 3 mps 754 mmHg 65%
    Show more